Temperature
17 17 17 17 17 17 17 17 17 17 17 17 17 17 17 17 17 17 17 16 16 16 16 16 16 16 16 16 16 16 16 15 15 15 15 15 15 15
17 17 17 17 17 17 17 17 17 17 17 17 17 17 17 17 17 17 16 16 16 16 16 16 16 16 16 16 15 15 15 15 15 15 15 15 15 15
16 16 16 17 17 17 17 17 17 17 17 17 17 17 16 16 17 16 16 16 16 16 16 16 16 16 15 15 15 15 15 15 15 15 15 15 15 15
16 16 16 16 16 16 16 16 16 16 16 16 16 16 16 16 16 16 16 16 16 16 16 16 15 15 15 15 15 15 15 15 15 15 15 15 14 14
16 16 16 16 16 16 16 16 16 16 16 16 16 16 16 16 16 16 16 16 15 15 15 15 15 15 15 15 15 15 15 15 15 14 14 14 14 14
16 16 16 16 16 16 16 16 16 16 16 16 16 16 16 16 15 15 15 15 15 15 15 15 15 15 15 15 15 15 14 14 14 14 14 14 14 14
16 16 16 15 16 16 15 15 15 15 15 15 15 15 15 15 15 15 15 15 15 15 15 15 15 15 15 15 14 14 14 14 14 14 14 14 14 14
15 16 15 15 15 15 15 15 15 15 15 15 15 14 14 14 14 14 14 14 14 14 14 14 14 14 14 14 14 14 14 14 14 14 14 14 13 13
15 15 15 15 15 15 15 15 15 15 14 14 14 14 14 14 14 14 14 14 14 14 14 14 14 14 14 14 14 14 14 14 14 13 13 13 13 13
15 15 15 15 15 15 15 15 15 14 14 14 14 14 14 14 14 14 14 14 14 14 14 14 14 14 14 14 14 14 14 13 13 13 13 13 13 13
15 15 15 15 14 14 14 14 14 14 14 14 14 14 14 14 14 14 14 13 13 13 13 13 13 13 13 13 13 13 13 13 13 13 13 13 13 12
14 14 14 14 14 14 14 14 14 14 14 13 14 14 14 14 13 13 13 13 13 13 13 13 13 13 13 13 13 13 13 13 13 13 12 12 12 12
14 14 14 14 14 14 14 14 13 13 13 13 13 13 13 13 13 13 13 13 13 13 13 13 13 13 13 12 13 13 12 12 12 12 12 12 12 12
14 14 14 14 14 14 14 13 13 13 13 13 13 13 13 13 13 13 13 13 13 13 13 13 13 12 12 12 12 12 12 12 12 12 12 12 11 11
14 14 14 14 14 13 13 13 13 13 13 12 12 12 12 12 12 12 12 12 13 13 12 12 12 12 12 12 12 12 12 12 12 12 11 11 11 11
13 14 14 14 13 13 13 13 13 13 13 12 12 12 12 12 12 12 12 12 12 12 12 12 12 12 12 12 11 11 11 11 11 11 11 11 11 11
13 13 13 13 13 13 13 13 13 13 12 12 12 12 12 12 12 12 12 12 12 12 12 12 12 11 11 11 11 11 11 11 11 11 11 11 11 10
13 13 13 13 13 13 13 13 13 12 12 12 12 12 12 12 12 11 11 11 11 11 11 11 11 11 11 11 11 11 11 11 11 11 10 10 10 10
13 13 13 12 12 12 12 12 12 12 12 12 12 11 11 11 11 11 11 11 11 11 11 11 11 11 11 10 11 11 11 10 10 10 10 10 10 10
13 12 12 12 12 12 12 12 12 12 11 11 11 11 11 11 11 11 11 11 11 11 11 11 11 11 10 10 10 10 10 10 10 10 10 10 10 10
12 12 12 12 12 12 11 11 11 11 11 11 11 11 11 11 11 11 11 10 10 10 10 10 10 10 10 10 10 10 10 10 10 10 10 9 9 9
12 12 12 12 11 11 11 11 11 10 10 10 10 10 10 10 10 10 10 10 10 10 10 10 10 10 10 10 10 10 10 10 10 10 10 9 9 9
12 12 11 11 11 11 11 10 10 10 10 10 10 10 10 10 10 10 10 10 10 9 9 10 10 9 9 9 9 10 10 10 10 9 9 9 9 9
Wind_Speed
2 3 3 3 3 3 2 1 2 3 3 2 1 2 2 4 7 6 6 9 11 11 11 10 9 8 8 8 8 7 7 7 7 6 6 6 6 6
2 2 3 3 4 3 2 2 2 2 3 2 2 1 1 2 6 5 6 10 13 13 12 11 10 9 8 9 8 8 7 7 6 7 7 7 7 7
3 2 3 3 3 4 3 2 2 2 3 2 2 1 1 2 3 5 6 8 9 13 13 12 11 10 9 8 8 8 8 7 7 8 8 8 8 7
3 3 3 4 3 3 4 4 3 3 2 3 2 2 3 3 4 4 4 6 7 11 14 13 12 11 10 10 9 8 8 8 7 7 7 8 8 7
2 2 3 4 4 3 4 4 4 4 2 3 3 2 2 2 3 4 4 3 5 7 11 12 12 12 11 11 10 9 9 8 8 8 7 7 8 7
3 2 2 2 3 4 4 3 4 4 4 3 3 2 2 2 2 2 3 2 3 3 4 7 10 11 11 11 10 10 10 9 9 8 8 8 7 7
3 3 3 1 1 3 4 3 4 4 4 4 3 2 2 2 2 3 3 3 2 1 1 3 4 5 7 9 10 11 11 10 10 9 9 9 8 8
3 3 3 3 3 4 4 5 5 5 4 4 4 3 3 3 3 4 3 3 3 1 1 4 3 4 4 6 9 11 11 11 10 10 9 9 8 8
3 3 4 2 1 2 4 6 5 6 5 4 4 4 3 2 3 5 4 4 4 3 3 4 3 3 3 5 9 11 12 12 11 11 10 9 8 8
3 3 2 2 2 2 3 3 3 3 4 4 4 4 3 2 3 5 5 5 4 3 3 3 3 2 2 3 8 11 11 11 10 10 10 9 8 8
4 3 3 1 2 2 3 3 3 3 4 3 4 4 5 5 4 3 4 4 4 3 1 2 2 1 1 1 4 9 9 9 10 10 10 10 9 7
4 3 1 1 1 1 2 3 3 4 4 4 3 5 5 6 6 4 4 4 3 2 1 1 2 1 1 1 1 3 5 6 8 9 9 9 8 5
3 2 1 1 1 3 4 4 5 4 4 4 4 4 4 3 3 3 3 3 3 3 2 1 2 1 1 1 1 2 3 3 4 5 8 9 10 7
3 2 1 2 3 5 5 5 5 5 4 4 3 3 3 2 2 2 3 3 3 4 4 2 2 1 1 1 1 2 2 3 3 3 4 7 9 10
3 3 3 5 6 5 7 7 5 4 4 3 3 3 2 2 2 2 2 3 4 5 4 2 2 2 2 2 2 1 1 2 3 2 3 3 4 5
4 4 5 7 6 6 5 5 5 4 3 3 3 3 2 2 2 2 2 2 2 2 2 2 3 3 2 3 2 2 1 2 2 2 2 3 4 4
2 3 3 3 3 3 3 3 3 2 2 3 3 2 2 2 2 2 2 2 2 2 1 1 2 3 2 2 2 2 2 2 2 2 2 2 2 2
2 3 3 3 3 2 2 2 2 2 2 2 3 3 3 3 2 2 2 2 2 3 2 1 1 1 1 1 2 2 2 2 2 2 2 2 2 2
3 4 3 3 2 2 2 2 2 1 1 2 3 3 3 3 3 2 2 2 2 3 2 1 2 2 2 3 3 3 3 2 2 2 2 2 2 3
4 3 3 2 2 2 2 2 2 1 2 2 3 2 2 3 3 3 2 2 2 3 3 2 2 2 3 4 3 3 5 4 3 2 2 1 1 1
4 3 2 2 2 1 1 1 2 2 2 2 2 2 2 3 3 3 3 2 2 3 3 3 2 3 3 2 2 2 2 4 4 3 2 2 2 2
2 2 2 2 2 2 1 1 2 2 2 1 2 2 2 3 3 4 3 3 2 3 3 2 2 2 2 3 4 3 2 2 2 1 1 2 3 3
2 2 2 2 2 1 1 1 2 2 1 1 2 2 3 3 3 3 3 2 3 3 3 2 2 2 3 3 3 3 2 2 1 1 2 4 4 5
Wind_Direction
290 292 292 297 293 286 287 275 267 284 283 250 211 195 186 158 174 196 188 203 204 206 208 213 219 225 227 226 225 227 232 233 235 237 240 243 244 242
269 297 308 303 306 302 291 274 262 264 273 281 264 246 240 234 195 202 200 203 206 210 212 214 214 218 224 226 227 230 234 236 236 238 240 240 242 242
293 294 299 299 306 313 310 299 281 266 267 287 304 307 228 252 225 231 223 207 211 214 213 213 213 214 219 224 228 229 231 233 236 238 240 238 237 236
279 301 303 295 293 298 303 305 297 286 274 279 279 278 255 236 237 241 237 233 214 213 210 209 210 211 214 218 223 225 227 228 231 235 236 232 230 228
267 282 294 301 301 296 292 300 298 297 284 273 268 267 269 260 253 263 258 250 251 221 205 205 209 211 214 216 218 222 223 225 228 231 229 228 228 227
274 276 279 286 293 294 291 300 299 296 289 285 281 274 287 297 274 268 274 259 269 258 212 207 209 213 215 215 215 219 221 222 225 226 227 226 225 224
260 261 251 238 254 283 293 307 306 299 292 288 282 287 289 308 294 280 275 279 276 272 255 225 203 206 215 218 217 219 218 218 220 223 225 225 222 220
256 259 247 218 233 251 270 276 273 279 294 295 292 293 290 291 292 287 283 282 275 251 254 259 216 209 203 202 206 208 211 213 216 218 219 219 219 218
258 262 269 264 239 269 264 271 278 270 257 268 283 290 292 293 283 283 280 273 269 266 246 253 229 221 212 203 198 202 207 209 211 212 213 212 214 216
251 253 254 269 280 302 287 280 272 281 267 254 264 277 286 284 269 268 270 267 260 256 238 252 251 242 223 185 198 202 206 207 209 212 211 210 211 216
246 247 245 222 301 315 284 287 293 297 295 280 272 278 276 274 272 287 284 279 276 262 255 239 260 271 252 225 207 199 199 205 209 213 212 210 211 216
243 218 165 149 268 299 282 280 282 291 300 297 279 271 263 260 250 240 265 277 281 275 249 244 255 258 262 252 149 180 204 211 210 214 215 211 208 201
258 247 194 173 257 262 264 263 266 281 281 274 264 260 258 255 244 228 240 256 270 271 271 253 266 264 230 251 218 198 192 185 200 219 223 213 204 197
275 272 239 245 264 263 259 256 267 278 271 275 277 281 281 281 276 261 245 246 254 259 266 245 248 247 247 263 257 216 210 188 186 199 202 200 207 214
280 291 282 267 263 252 240 247 255 256 259 268 274 276 280 278 277 267 248 238 249 266 269 243 242 248 237 248 249 244 250 226 201 195 187 186 194 197
265 266 255 253 255 257 254 240 236 242 249 262 272 278 283 279 278 274 271 257 255 262 256 246 247 237 236 248 244 248 254 219 212 222 214 206 206 202
262 262 251 238 240 237 230 230 239 251 266 277 282 289 294 292 281 281 282 291 275 274 267 251 245 228 231 259 251 240 233 236 223 215 209 221 224 205
210 240 250 249 253 264 264 248 238 243 263 279 287 290 288 284 289 288 277 271 282 285 279 250 255 275 291 301 250 238 228 240 234 226 211 210 225 229
209 238 243 250 264 272 271 274 274 270 281 282 280 284 288 293 299 300 299 292 290 284 291 277 253 237 248 268 271 232 227 238 235 233 226 228 236 232
227 241 247 255 269 282 282 292 302 298 293 290 289 294 295 294 297 293 281 281 291 294 295 292 269 257 250 263 268 265 229 230 227 226 225 235 256 254
236 238 247 263 271 274 284 282 275 274 279 282 286 301 309 306 302 300 300 282 281 286 291 291 282 269 266 269 268 269 258 235 229 216 215 219 245 233
258 260 256 271 281 275 269 278 290 290 297 300 311 306 301 310 311 310 313 314 301 294 299 304 302 296 280 257 259 259 244 232 217 202 238 218 215 227
246 266 276 283 294 305 329 312 315 320 331 331 324 315 314 308 300 302 305 303 295 290 294 300 303 292 279 266 264 264 245 224 213 196 258 260 242 231
Height
1541 1542 1542 1542 1542 1542 1542 1541 1541 1540 1539 1538 1538 1537 1537 1536 1535 1535 1534 1535 1535 1535 1534 1534 1534 1533 1533 1533 1533 1533 1533 1533 1532 1532 1533 1533 1533 1533
1539 1539 1539 1539 1539 1539 1539 1539 1539 1538 1537 1536 1535 1534 1533 1533 1533 1532 1531 1531 1532 1532 1531 1531 1531 1530 1530 1530 1530 1530 1529 1529 1529 1529 1529 1529 1530 1530
1537 1537 1537 1537 1536 1536 1536 1536 1536 1536 1534 1533 1533 1532 1531 1531 1530 1529 1529 1529 1528 1528 1528 1528 1528 1527 1527 1527 1527 1527 1526 1526 1526 1526 1526 1526 1526 1527
1534 1534 1534 1535 1534 1533 1533 1533 1533 1532 1532 1531 1530 1529 1529 1528 1527 1527 1526 1526 1525 1525 1524 1524 1524 1524 1524 1524 1524 1524 1523 1523 1523 1523 1523 1523 1523 1524
1532 1532 1532 1531 1531 1530 1530 1530 1530 1529 1529 1528 1527 1527 1526 1525 1524 1524 1523 1522 1522 1521 1521 1521 1521 1521 1521 1520 1520 1520 1520 1520 1520 1520 1519 1519 1520 1520
1530 1530 1529 1529 1528 1528 1528 1527 1527 1526 1526 1525 1524 1523 1523 1522 1521 1520 1519 1519 1519 1519 1518 1518 1518 1517 1517 1517 1517 1517 1517 1517 1517 1516 1516 1516 1516 1517
1527 1527 1527 1526 1526 1526 1525 1524 1524 1523 1523 1522 1521 1521 1520 1519 1518 1517 1516 1516 1516 1516 1515 1514 1514 1513 1513 1513 1513 1513 1513 1513 1513 1513 1512 1512 1512 1513
1523 1523 1524 1523 1523 1523 1522 1522 1521 1520 1520 1519 1519 1518 1517 1516 1515 1515 1513 1512 1512 1512 1511 1511 1511 1510 1510 1510 1510 1510 1509 1509 1509 1509 1509 1509 1509 1509
1521 1521 1521 1521 1520 1520 1519 1518 1518 1517 1517 1517 1516 1515 1514 1513 1512 1511 1511 1510 1509 1509 1508 1507 1507 1506 1507 1506 1506 1506 1506 1506 1505 1505 1506 1506 1506 1507
1518 1518 1518 1517 1517 1517 1516 1515 1514 1514 1513 1513 1512 1512 1511 1510 1509 1508 1507 1506 1505 1505 1505 1504 1504 1504 1503 1503 1503 1503 1503 1502 1502 1502 1502 1503 1503 1504
1515 1515 1515 1514 1514 1513 1512 1511 1511 1510 1510 1510 1509 1508 1508 1507 1506 1505 1504 1503 1502 1502 1502 1501 1500 1500 1500 1500 1500 1500 1500 1499 1499 1499 1499 1500 1500 1501
1512 1512 1512 1511 1511 1510 1509 1508 1507 1507 1507 1506 1506 1505 1504 1503 1503 1502 1501 1500 1499 1499 1498 1498 1497 1497 1496 1496 1497 1497 1497 1497 1497 1496 1497 1497 1498 1498
1509 1509 1509 1508 1508 1507 1506 1506 1505 1505 1504 1503 1502 1502 1501 1500 1500 1499 1498 1498 1497 1496 1496 1495 1494 1494 1494 1494 1494 1494 1494 1494 1493 1494 1494 1494 1495 1495
1506 1506 1505 1505 1505 1504 1504 1504 1503 1502 1502 1501 1500 1499 1498 1497 1496 1496 1495 1495 1494 1493 1493 1492 1492 1491 1491 1491 1491 1491 1491 1491 1491 1491 1491 1491 1492 1493
1502 1503 1503 1502 1502 1501 1501 1501 1501 1500 1499 1499 1498 1497 1496 1495 1494 1493 1492 1492 1491 1490 1490 1489 1489 1489 1489 1488 1488 1488 1488 1488 1488 1488 1488 1488 1489 1489
1499 1499 1499 1499 1499 1499 1498 1498 1498 1498 1498 1497 1496 1495 1494 1493 1492 1491 1490 1489 1488 1487 1487 1486 1486 1486 1485 1485 1485 1485 1485 1485 1485 1485 1486 1486 1486 1486
1495 1496 1496 1496 1496 1496 1496 1496 1496 1495 1495 1494 1494 1493 1492 1491 1490 1489 1488 1487 1486 1485 1484 1484 1483 1483 1483 1483 1482 1482 1482 1482 1483 1483 1483 1482 1483 1483
1493 1493 1493 1493 1494 1493 1493 1493 1493 1492 1492 1491 1491 1490 1489 1489 1488 1487 1486 1485 1484 1483 1482 1481 1480 1480 1480 1480 1480 1480 1479 1479 1480 1480 1479 1480 1480 1480
1490 1490 1491 1491 1491 1491 1491 1490 1490 1489 1489 1488 1488 1487 1487 1486 1485 1485 1484 1483 1482 1481 1480 1479 1478 1477 1476 1476 1476 1477 1476 1476 1476 1476 1477 1477 1477 1477
1488 1489 1489 1489 1489 1488 1488 1487 1487 1487 1486 1486 1485 1485 1484 1483 1483 1482 1481 1480 1479 1478 1477 1476 1475 1474 1474 1474 1473 1473 1473 1473 1473 1473 1473 1473 1474 1474
1486 1486 1486 1486 1486 1486 1485 1485 1484 1484 1483 1483 1482 1481 1481 1481 1480 1479 1478 1477 1477 1476 1474 1473 1472 1472 1471 1471 1470 1469 1470 1470 1470 1470 1470 1470 1470 1471
1483 1483 1483 1483 1483 1483 1482 1482 1481 1481 1480 1479 1479 1478 1478 1478 1477 1476 1476 1475 1474 1473 1472 1471 1470 1469 1468 1467 1467 1466 1466 1466 1467 1467 1468 1468 1467 1467
1481 1481 1480 1480 1481 1480 1479 1479 1478 1478 1477 1476 1475 1475 1475 1474 1474 1474 1473 1472 1471 1470 1469 1468 1467 1466 1465 1465 1464 1464 1463 1463 1463 1464 1464 1465 1465 1465